Time,TemperatureF,DewpointF,PressureIn,WindDirection,WindDirectionDegrees,WindSpeedMPH,WindSpeedGustMPH,Humidity,HourlyPrecipIn,Conditions,Clouds,dailyrainin,SoftwareType,DateUTC
2013-01-02 00:03:00,43.4,41.0,29.88,WNW,293,0.0,0.2,91,0.00,,,0.00,WUHU216HW,2013-01-02 05:03:00,
2013-01-02 00:08:00,43.4,41.0,29.89,WNW,293,0.2,0.2,91,0.00,,,0.00,WUHU216HW,2013-01-02 05:08:00,
2013-01-02 00:13:00,43.4,41.0,29.88,WNW,293,0.0,0.2,91,0.00,,,0.00,WUHU216HW,2013-01-02 05:13:00,
2013-01-02 00:18:00,43.4,41.0,29.89,NW,315,0.2,0.2,91,0.00,,,0.00,WUHU216HW,2013-01-02 05:18:00,
2013-01-02 00:23:00,43.4,41.0,29.88,NW,315,0.0,0.4,91,0.00,,,0.00,WUHU216HW,2013-01-02 05:23:00,
2013-01-02 00:28:00,43.4,41.0,29.88,NW,315,0.0,0.4,91,0.00,,,0.00,WUHU216HW,2013-01-02 05:28:00,
2013-01-02 00:33:00,43.4,41.0,29.89,NW,315,0.0,0.7,91,0.00,,,0.00,WUHU216HW,2013-01-02 05:33:00,
2013-01-02 00:38:00,43.4,41.0,29.90,NNW,338,0.2,0.7,91,0.00,,,0.00,WUHU216HW,2013-01-02 05:38:00,
2013-01-02 00:43:00,43.4,41.0,29.89,NNW,338,0.0,0.4,91,0.00,,,0.00,WUHU216HW,2013-01-02 05:43:00,
2013-01-02 00:48:00,43.2,40.8,29.89,NNW,338,0.0,0.4,91,0.00,,,0.00,WUHU216HW,2013-01-02 05:48:00,
2013-01-02 00:53:00,43.4,41.2,29.87,ESE,113,0.4,0.4,92,0.00,,,0.00,WUHU216HW,2013-01-02 05:53:00,
2013-01-02 00:58:00,43.2,41.0,29.87,ESE,113,0.0,0.7,92,0.00,,,0.00,WUHU216HW,2013-01-02 05:58:00,
2013-01-02 01:03:00,43.2,40.8,29.87,ESE,113,0.0,0.7,91,0.00,,,0.00,WUHU216HW,2013-01-02 06:03:00,
2013-01-02 01:08:00,43.2,40.8,29.87,ESE,113,0.0,0.0,91,0.00,,,0.00,WUHU216HW,2013-01-02 06:08:00,
2013-01-02 01:13:00,43.2,40.8,29.87,ESE,113,0.0,0.7,91,0.00,,,0.00,WUHU216HW,2013-01-02 06:13:00,
2013-01-02 01:18:00,43.0,40.9,29.85,ESE,113,0.4,1.1,92,0.00,,,0.00,WUHU216HW,2013-01-02 06:18:00,
2013-01-02 01:23:00,43.0,40.6,29.85,ESE,113,0.0,1.1,91,0.00,,,0.00,WUHU216HW,2013-01-02 06:23:00,
2013-01-02 01:28:00,43.0,40.6,29.86,ESE,113,0.0,0.4,91,0.00,,,0.00,WUHU216HW,2013-01-02 06:28:00,
2013-01-02 01:33:00,43.0,40.9,29.86,ESE,113,0.0,0.0,92,0.00,,,0.00,WUHU216HW,2013-01-02 06:33:00,
2013-01-02 01:38:00,43.0,40.9,29.87,ESE,113,0.0,0.4,92,0.00,,,0.00,WUHU216HW,2013-01-02 06:38:00,
2013-01-02 01:43:00,43.0,40.9,29.85,ESE,113,0.0,0.4,92,0.00,,,0.00,WUHU216HW,2013-01-02 06:43:00,
2013-01-02 01:48:00,42.8,40.7,29.86,ESE,113,0.0,0.0,92,0.00,,,0.00,WUHU216HW,2013-01-02 06:48:00,
2013-01-02 01:53:00,42.8,40.7,29.86,ESE,113,0.0,0.0,92,0.00,,,0.00,WUHU216HW,2013-01-02 06:53:00,
2013-01-02 01:58:00,42.8,40.7,29.86,ESE,113,0.0,0.2,92,0.00,,,0.00,WUHU216HW,2013-01-02 06:58:00,
2013-01-02 02:03:00,42.8,40.7,29.86,ESE,113,0.0,0.2,92,0.00,,,0.00,WUHU216HW,2013-01-02 07:03:00,
2013-01-02 02:08:00,42.8,40.7,29.86,SSE,158,0.0,0.7,92,0.00,,,0.00,WUHU216HW,2013-01-02 07:08:00,
2013-01-02 02:13:00,42.8,40.7,29.85,SE,135,0.0,1.1,92,0.00,,,0.00,WUHU216HW,2013-01-02 07:13:00,
2013-01-02 02:18:00,42.8,40.7,29.87,South,180,0.2,1.1,92,0.00,,,0.00,WUHU216HW,2013-01-02 07:18:00,
2013-01-02 02:23:00,42.8,40.7,29.87,South,180,0.0,0.4,92,0.00,,,0.00,WUHU216HW,2013-01-02 07:23:00,
2013-01-02 02:28:00,42.8,40.7,29.85,SE,135,0.4,1.1,92,0.00,,,0.00,WUHU216HW,2013-01-02 07:28:00,
2013-01-02 02:33:00,42.8,40.7,29.87,SE,135,0.0,1.1,92,0.00,,,0.00,WUHU216HW,2013-01-02 07:33:00,
2013-01-02 02:38:00,42.8,40.7,29.87,SSW,203,0.0,0.4,92,0.00,,,0.00,WUHU216HW,2013-01-02 07:38:00,
2013-01-02 02:43:00,42.8,41.0,29.86,SE,135,0.0,0.4,93,0.00,,,0.00,WUHU216HW,2013-01-02 07:43:00,
2013-01-02 02:48:00,42.8,41.0,29.88,SE,135,0.0,0.4,93,0.00,,,0.00,WUHU216HW,2013-01-02 07:48:00,
2013-01-02 02:53:00,42.7,40.5,29.87,West,270,0.0,0.7,92,0.00,,,0.00,WUHU216HW,2013-01-02 07:53:00,
2013-01-02 02:58:00,42.7,40.5,29.88,West,270,0.0,0.7,92,0.00,,,0.00,WUHU216HW,2013-01-02 07:58:00,
2013-01-02 03:03:00,42.7,40.5,29.88,West,270,0.0,0.0,92,0.00,,,0.00,WUHU216HW,2013-01-02 08:03:00,
2013-01-02 03:08:00,42.7,40.5,29.89,West,270,0.0,0.0,92,0.00,,,0.00,WUHU216HW,2013-01-02 08:08:00,
2013-01-02 03:13:00,42.7,40.5,29.89,West,270,0.0,0.2,92,0.00,,,0.00,WUHU216HW,2013-01-02 08:13:00,
2013-01-02 03:18:00,42.5,40.3,29.88,West,270,0.0,0.2,92,0.00,,,0.00,WUHU216HW,2013-01-02 08:18:00,
2013-01-02 03:23:00,42.5,40.3,29.87,West,270,0.0,0.0,92,0.00,,,0.00,WUHU216HW,2013-01-02 08:23:00,
2013-01-02 03:28:00,42.5,40.3,29.87,West,270,0.0,0.0,92,0.00,,,0.00,WUHU216HW,2013-01-02 08:28:00,
2013-01-02 03:33:00,42.3,40.1,29.88,West,270,0.0,0.2,92,0.00,,,0.00,WUHU216HW,2013-01-02 08:33:00,
2013-01-02 03:38:00,42.3,40.1,29.88,West,270,0.0,0.4,92,0.00,,,0.00,WUHU216HW,2013-01-02 08:38:00,
2013-01-02 03:43:00,42.3,40.1,29.87,WNW,293,0.2,0.9,92,0.00,,,0.00,WUHU216HW,2013-01-02 08:43:00,
2013-01-02 03:48:00,42.1,40.0,29.88,NW,315,0.0,0.9,92,0.00,,,0.00,WUHU216HW,2013-01-02 08:48:00,
2013-01-02 03:53:00,42.1,40.0,29.88,West,270,0.4,0.4,92,0.00,,,0.00,WUHU216HW,2013-01-02 08:53:00,
2013-01-02 03:58:00,42.1,40.0,29.87,South,180,0.0,0.9,92,0.00,,,0.00,WUHU216HW,2013-01-02 08:58:00,
2013-01-02 04:03:00,41.9,39.8,29.88,NW,315,0.0,0.9,92,0.00,,,0.00,WUHU216HW,2013-01-02 09:03:00,
2013-01-02 04:08:00,41.8,39.6,29.88,WNW,293,0.0,0.4,92,0.00,,,0.00,WUHU216HW,2013-01-02 09:08:00,
2013-01-02 04:13:00,41.8,39.6,29.89,South,180,0.0,0.7,92,0.00,,,0.00,WUHU216HW,2013-01-02 09:13:00,
2013-01-02 04:18:00,41.8,39.6,29.88,SE,135,0.0,1.3,92,0.00,,,0.00,WUHU216HW,2013-01-02 09:18:00,
2013-01-02 04:23:00,41.6,39.4,29.89,SSE,158,0.0,1.3,92,0.00,,,0.00,WUHU216HW,2013-01-02 09:23:00,
2013-01-02 04:28:00,41.6,39.4,29.89,SE,135,0.0,0.9,92,0.00,,,0.00,WUHU216HW,2013-01-02 09:28:00,
2013-01-02 04:33:00,41.6,39.4,29.88,SE,135,0.0,0.9,92,0.00,,,0.00,WUHU216HW,2013-01-02 09:33:00,
2013-01-02 04:38:00,41.6,39.4,29.89,SE,135,0.0,0.0,92,0.00,,,0.00,WUHU216HW,2013-01-02 09:38:00,
2013-01-02 04:43:00,41.4,39.2,29.88,SE,135,0.0,0.4,92,0.00,,,0.00,WUHU216HW,2013-01-02 09:43:00,
2013-01-02 04:48:00,41.4,39.2,29.89,WNW,293,0.0,1.1,92,0.00,,,0.00,WUHU216HW,2013-01-02 09:48:00,
2013-01-02 04:53:00,41.2,39.1,29.89,NW,315,0.0,1.1,92,0.00,,,0.00,WUHU216HW,2013-01-02 09:53:00,
2013-01-02 04:58:00,41.0,38.9,29.88,NW,315,0.0,0.4,92,0.00,,,0.00,WUHU216HW,2013-01-02 09:58:00,
2013-01-02 05:03:00,41.0,38.9,29.89,NW,315,0.0,0.4,92,0.00,,,0.00,WUHU216HW,2013-01-02 10:03:00,
2013-01-02 05:08:00,40.9,38.4,29.90,NW,315,0.0,1.1,91,0.00,,,0.00,WUHU216HW,2013-01-02 10:08:00,
2013-01-02 05:13:00,40.7,38.3,29.91,NW,315,0.0,1.1,91,0.00,,,0.00,WUHU216HW,2013-01-02 10:13:00,
2013-01-02 05:18:00,40.7,38.3,29.91,North,0,0.0,0.9,91,0.00,,,0.00,WUHU216HW,2013-01-02 10:18:00,
2013-01-02 05:23:00,40.5,38.1,29.90,NW,315,0.0,0.9,91,0.00,,,0.00,WUHU216HW,2013-01-02 10:23:00,
2013-01-02 05:28:00,40.3,37.9,29.90,NW,315,0.0,0.7,91,0.00,,,0.00,WUHU216HW,2013-01-02 10:28:00,
2013-01-02 05:33:00,40.1,37.7,29.89,NW,315,0.0,0.0,91,0.00,,,0.00,WUHU216HW,2013-01-02 10:33:00,
2013-01-02 05:38:00,40.1,37.7,29.90,SW,225,0.0,0.4,91,0.00,,,0.00,WUHU216HW,2013-01-02 10:38:00,
2013-01-02 05:43:00,40.0,37.5,29.90,SSW,203,0.0,0.4,91,0.00,,,0.00,WUHU216HW,2013-01-02 10:43:00,
2013-01-02 05:48:00,40.0,37.5,29.90,South,180,0.0,0.4,91,0.00,,,0.00,WUHU216HW,2013-01-02 10:48:00,
2013-01-02 05:53:00,40.0,37.5,29.89,South,180,0.0,0.4,91,0.00,,,0.00,WUHU216HW,2013-01-02 10:53:00,
2013-01-02 05:58:00,40.0,37.5,29.89,SE,135,0.0,1.3,91,0.00,,,0.00,WUHU216HW,2013-01-02 10:58:00,
2013-01-02 06:03:00,39.8,37.4,29.89,SE,135,0.0,1.3,91,0.00,,,0.00,WUHU216HW,2013-01-02 11:03:00,
2013-01-02 06:08:00,39.8,37.4,29.89,SE,135,0.0,0.9,91,0.00,,,0.00,WUHU216HW,2013-01-02 11:08:00,
2013-01-02 06:13:00,39.6,37.2,29.89,SE,135,0.0,0.7,91,0.00,,,0.00,WUHU216HW,2013-01-02 11:13:00,
2013-01-02 06:18:00,39.4,37.0,29.89,SE,135,0.0,0.4,91,0.00,,,0.00,WUHU216HW,2013-01-02 11:18:00,
2013-01-02 06:23:00,39.2,36.8,29.88,SE,135,0.0,1.1,91,0.00,,,0.00,WUHU216HW,2013-01-02 11:23:00,
2013-01-02 06:28:00,39.2,36.8,29.89,SE,135,0.0,1.1,91,0.00,,,0.00,WUHU216HW,2013-01-02 11:28:00,
2013-01-02 06:33:00,39.2,36.8,29.89,SE,135,0.0,0.4,91,0.00,,,0.00,WUHU216HW,2013-01-02 11:33:00,
2013-01-02 06:38:00,39.1,36.6,29.89,SE,135,0.0,0.4,91,0.00,,,0.00,WUHU216HW,2013-01-02 11:38:00,
2013-01-02 06:43:00,38.9,36.2,29.89,West,270,0.0,0.4,90,0.00,,,0.00,WUHU216HW,2013-01-02 11:43:00,
2013-01-02 06:48:00,38.9,36.2,29.90,SSE,158,0.0,0.4,90,0.00,,,0.00,WUHU216HW,2013-01-02 11:48:00,
2013-01-02 06:53:00,38.9,36.2,29.89,SSE,158,0.0,0.4,90,0.00,,,0.00,WUHU216HW,2013-01-02 11:53:00,
2013-01-02 06:58:00,38.7,36.0,29.89,SSE,158,0.0,0.2,90,0.00,,,0.00,WUHU216HW,2013-01-02 11:58:00,
2013-01-02 07:03:00,38.7,36.0,29.89,West,270,1.6,1.6,90,0.00,,,0.00,WUHU216HW,2013-01-02 12:03:00,
2013-01-02 07:08:00,38.7,36.3,29.89,West,270,0.0,1.6,91,0.00,,,0.00,WUHU216HW,2013-01-02 12:08:00,
2013-01-02 07:13:00,38.7,36.0,29.90,SW,225,0.2,1.6,90,0.00,,,0.00,WUHU216HW,2013-01-02 12:13:00,
2013-01-02 07:18:00,38.7,36.0,29.90,WSW,248,0.4,1.1,90,0.00,,,0.00,WUHU216HW,2013-01-02 12:18:00,
2013-01-02 07:23:00,38.7,36.0,29.90,West,270,0.0,1.1,90,0.00,,,0.00,WUHU216HW,2013-01-02 12:23:00,
2013-01-02 07:28:00,38.7,36.0,29.90,NNW,338,0.0,0.4,90,0.00,,,0.00,WUHU216HW,2013-01-02 12:28:00,
2013-01-02 07:33:00,38.9,36.2,29.91,WSW,248,0.4,0.7,90,0.00,,,0.00,WUHU216HW,2013-01-02 12:33:00,
2013-01-02 07:38:00,38.7,35.7,29.91,SE,135,0.0,1.6,89,0.00,,,0.00,WUHU216HW,2013-01-02 12:38:00,
2013-01-02 07:43:00,38.7,35.7,29.92,SE,135,0.0,1.6,89,0.00,,,0.00,WUHU216HW,2013-01-02 12:43:00,
2013-01-02 07:48:00,38.7,35.7,29.92,SW,225,0.7,0.9,89,0.00,,,0.00,WUHU216HW,2013-01-02 12:48:00,
2013-01-02 07:53:00,38.7,35.7,29.92,SW,225,0.0,0.7,89,0.00,,,0.00,WUHU216HW,2013-01-02 12:53:00,
2013-01-02 07:58:00,38.5,35.6,29.92,SE,135,0.0,0.7,89,0.00,,,0.00,WUHU216HW,2013-01-02 12:58:00,
2013-01-02 08:03:00,38.5,35.6,29.90,SSE,158,0.7,0.7,89,0.00,,,0.00,WUHU216HW,2013-01-02 13:03:00,
2013-01-02 08:08:00,38.5,35.6,29.92,SSE,158,0.0,0.7,89,0.00,,,0.00,WUHU216HW,2013-01-02 13:08:00,
2013-01-02 08:13:00,38.5,35.6,29.93,NW,315,0.2,1.3,89,0.00,,,0.00,WUHU216HW,2013-01-02 13:13:00,
2013-01-02 08:18:00,38.5,35.6,29.92,NW,315,0.0,1.3,89,0.00,,,0.00,WUHU216HW,2013-01-02 13:18:00,
2013-01-02 08:23:00,38.3,35.4,29.92,NW,315,0.0,0.2,89,0.00,,,0.00,WUHU216HW,2013-01-02 13:23:00,
2013-01-02 08:28:00,38.3,35.4,29.93,WNW,293,0.0,0.4,89,0.00,,,0.00,WUHU216HW,2013-01-02 13:28:00,
2013-01-02 08:33:00,38.2,35.2,29.93,West,270,0.7,1.3,89,0.00,,,0.00,WUHU216HW,2013-01-02 13:33:00,
2013-01-02 08:38:00,38.2,35.2,29.92,WNW,293,0.0,1.3,89,0.00,,,0.00,WUHU216HW,2013-01-02 13:38:00,
2013-01-02 08:43:00,38.0,35.0,29.94,WNW,293,0.0,0.9,89,0.00,,,0.00,WUHU216HW,2013-01-02 13:43:00,
2013-01-02 08:48:00,37.8,34.8,29.94,WNW,293,0.0,0.7,89,0.00,,,0.00,WUHU216HW,2013-01-02 13:48:00,
2013-01-02 08:53:00,37.8,35.1,29.94,WNW,293,0.4,0.7,90,0.00,,,0.00,WUHU216HW,2013-01-02 13:53:00,
2013-01-02 08:58:00,37.8,35.1,29.94,WNW,293,0.2,0.7,90,0.00,,,0.00,WUHU216HW,2013-01-02 13:58:00,
2013-01-02 09:03:00,37.8,35.1,29.94,WNW,293,0.0,0.4,90,0.00,,,0.00,WUHU216HW,2013-01-02 14:03:00,
2013-01-02 09:08:00,37.8,35.1,29.94,WNW,293,0.0,0.2,90,0.00,,,0.00,WUHU216HW,2013-01-02 14:08:00,
2013-01-02 09:13:00,37.8,35.1,29.95,WNW,293,0.0,0.0,90,0.00,,,0.00,WUHU216HW,2013-01-02 14:13:00,
2013-01-02 09:18:00,37.8,35.1,29.93,WNW,293,0.0,0.0,90,0.00,,,0.00,WUHU216HW,2013-01-02 14:18:00,
2013-01-02 09:23:00,38.0,35.3,29.93,WNW,293,0.0,0.0,90,0.00,,,0.00,WUHU216HW,2013-01-02 14:23:00,
2013-01-02 09:28:00,38.2,35.5,29.93,WNW,293,0.0,0.0,90,0.00,,,0.00,WUHU216HW,2013-01-02 14:28:00,
2013-01-02 09:33:00,38.5,35.8,29.93,WNW,293,0.0,0.0,90,0.00,,,0.00,WUHU216HW,2013-01-02 14:33:00,
2013-01-02 09:38:00,38.5,35.8,29.95,WNW,293,0.0,0.0,90,0.00,,,0.00,WUHU216HW,2013-01-02 14:38:00,
2013-01-02 09:43:00,38.7,36.0,29.96,WNW,293,0.0,0.0,90,0.00,,,0.00,WUHU216HW,2013-01-02 14:43:00,
2013-01-02 09:48:00,38.9,36.2,29.96,WNW,293,0.0,0.0,90,0.00,,,0.00,WUHU216HW,2013-01-02 14:48:00,
2013-01-02 09:53:00,39.1,36.4,29.96,WNW,293,0.0,0.0,90,0.00,,,0.00,WUHU216HW,2013-01-02 14:53:00,
2013-01-02 09:58:00,39.1,36.1,29.95,WNW,293,0.0,0.0,89,0.00,,,0.00,WUHU216HW,2013-01-02 14:58:00,
2013-01-02 10:03:00,39.2,36.3,29.96,WNW,293,0.0,0.0,89,0.00,,,0.00,WUHU216HW,2013-01-02 15:03:00,
2013-01-02 10:08:00,39.4,36.5,29.96,WNW,293,0.0,0.0,89,0.00,,,0.00,WUHU216HW,2013-01-02 15:08:00,
2013-01-02 10:13:00,39.8,36.8,29.96,WNW,293,0.0,0.0,89,0.00,,,0.00,WUHU216HW,2013-01-02 15:13:00,
2013-01-02 10:18:00,40.1,37.2,29.95,WNW,293,0.0,0.0,89,0.00,,,0.00,WUHU216HW,2013-01-02 15:18:00,
2013-01-02 10:23:00,40.3,37.0,29.96,WNW,293,0.0,0.0,88,0.00,,,0.00,WUHU216HW,2013-01-02 15:23:00,
2013-01-02 10:28:00,40.3,36.7,29.98,WNW,293,0.0,0.0,87,0.00,,,0.00,WUHU216HW,2013-01-02 15:28:00,
2013-01-02 10:33:00,40.3,36.7,29.97,WNW,293,0.0,0.0,87,0.00,,,0.00,WUHU216HW,2013-01-02 15:33:00,
2013-01-02 10:38:00,40.5,37.2,29.97,WNW,293,0.0,0.0,88,0.00,,,0.00,WUHU216HW,2013-01-02 15:38:00,
2013-01-02 10:43:00,40.7,37.1,29.97,WNW,293,0.0,0.0,87,0.00,,,0.00,WUHU216HW,2013-01-02 15:43:00,
2013-01-02 10:48:00,40.9,37.3,29.95,WNW,293,0.0,0.0,87,0.00,,,0.00,WUHU216HW,2013-01-02 15:48:00,
2013-01-02 10:53:00,41.0,37.5,29.95,WNW,293,0.0,0.0,87,0.00,,,0.00,WUHU216HW,2013-01-02 15:53:00,
2013-01-02 10:58:00,41.2,37.6,29.97,WNW,293,0.0,0.0,87,0.00,,,0.00,WUHU216HW,2013-01-02 15:58:00,
2013-01-02 11:03:00,41.4,37.8,29.97,WNW,293,0.0,0.0,87,0.00,,,0.00,WUHU216HW,2013-01-02 16:03:00,
2013-01-02 11:08:00,41.4,37.8,29.97,WNW,293,0.0,0.4,87,0.00,,,0.00,WUHU216HW,2013-01-02 16:08:00,
2013-01-02 11:13:00,41.6,38.0,29.96,WNW,293,0.0,0.4,87,0.00,,,0.00,WUHU216HW,2013-01-02 16:13:00,
2013-01-02 11:18:00,41.8,38.2,29.96,WNW,293,0.0,0.0,87,0.00,,,0.00,WUHU216HW,2013-01-02 16:18:00,
2013-01-02 11:23:00,42.1,38.5,29.95,WNW,293,0.0,0.0,87,0.00,,,0.00,WUHU216HW,2013-01-02 16:23:00,
2013-01-02 11:28:00,42.3,38.3,29.96,WNW,293,0.0,0.0,86,0.00,,,0.00,WUHU216HW,2013-01-02 16:28:00,
2013-01-02 11:33:00,42.7,38.4,29.96,SE,135,0.4,1.1,85,0.00,,,0.00,WUHU216HW,2013-01-02 16:33:00,
2013-01-02 11:38:00,42.8,37.4,29.96,SE,135,0.0,1.1,81,0.00,,,0.00,WUHU216HW,2013-01-02 16:38:00,
2013-01-02 11:43:00,42.8,38.0,29.96,SE,135,0.0,0.9,83,0.00,,,0.00,WUHU216HW,2013-01-02 16:43:00,
2013-01-02 11:48:00,43.2,38.3,29.96,SW,225,0.4,0.9,83,0.00,,,0.00,WUHU216HW,2013-01-02 16:48:00,
2013-01-02 11:53:00,43.2,38.1,29.97,SW,225,0.0,0.7,82,0.00,,,0.00,WUHU216HW,2013-01-02 16:53:00,
2013-01-02 11:58:00,43.4,38.3,29.97,WSW,248,1.1,1.1,82,0.00,,,0.00,WUHU216HW,2013-01-02 16:58:00,
2013-01-02 12:03:00,43.4,38.3,29.96,WSW,248,0.0,1.1,82,0.00,,,0.00,WUHU216HW,2013-01-02 17:03:00,
2013-01-02 12:08:00,43.4,38.3,29.95,WSW,248,0.0,1.1,82,0.00,,,0.00,WUHU216HW,2013-01-02 17:08:00,
2013-01-02 12:13:00,43.2,38.3,29.95,WSW,248,0.0,0.4,83,0.00,,,0.00,WUHU216HW,2013-01-02 17:13:00,
2013-01-02 12:18:00,43.2,37.7,29.93,SE,135,0.2,0.7,81,0.00,,,0.00,WUHU216HW,2013-01-02 17:18:00,
2013-01-02 12:23:00,43.2,37.7,29.95,SE,135,0.0,0.7,81,0.00,,,0.00,WUHU216HW,2013-01-02 17:23:00,
2013-01-02 12:28:00,43.4,37.9,29.94,SW,225,0.0,0.7,81,0.00,,,0.00,WUHU216HW,2013-01-02 17:28:00,
2013-01-02 12:33:00,43.6,38.4,29.94,WSW,248,0.0,0.7,82,0.00,,,0.00,WUHU216HW,2013-01-02 17:33:00,
2013-01-02 12:38:00,43.7,38.6,29.94,WSW,248,0.0,0.4,82,0.00,,,0.00,WUHU216HW,2013-01-02 17:38:00,
2013-01-02 12:43:00,43.9,38.8,29.94,WSW,248,0.0,0.7,82,0.00,,,0.00,WUHU216HW,2013-01-02 17:43:00,
2013-01-02 12:48:00,44.1,39.0,29.94,WSW,248,0.0,0.7,82,0.00,,,0.00,WUHU216HW,2013-01-02 17:48:00,
2013-01-02 12:53:00,44.1,38.3,29.95,West,270,0.0,1.1,80,0.00,,,0.00,WUHU216HW,2013-01-02 17:53:00,
2013-01-02 12:58:00,43.9,37.8,29.93,WSW,248,0.4,1.1,79,0.00,,,0.00,WUHU216HW,2013-01-02 17:58:00,
2013-01-02 13:03:00,43.9,37.8,29.93,SSE,158,0.4,1.3,79,0.00,,,0.00,WUHU216HW,2013-01-02 18:03:00,
2013-01-02 13:08:00,43.7,37.4,29.93,WSW,248,0.4,1.3,78,0.00,,,0.00,WUHU216HW,2013-01-02 18:08:00,
2013-01-02 13:13:00,43.7,37.0,29.92,South,180,0.4,1.1,77,0.00,,,0.00,WUHU216HW,2013-01-02 18:13:00,
2013-01-02 13:18:00,43.7,37.0,29.92,WSW,248,0.4,1.1,77,0.00,,,0.00,WUHU216HW,2013-01-02 18:18:00,
2013-01-02 13:23:00,43.9,37.5,29.94,WSW,248,0.0,1.1,78,0.00,,,0.00,WUHU216HW,2013-01-02 18:23:00,
2013-01-02 13:28:00,44.1,37.4,29.92,ESE,113,0.2,1.1,77,0.00,,,0.00,WUHU216HW,2013-01-02 18:28:00,
2013-01-02 13:33:00,44.5,38.0,29.93,WNW,293,0.0,0.9,78,0.00,,,0.00,WUHU216HW,2013-01-02 18:33:00,
2013-01-02 13:38:00,44.6,37.9,29.93,WNW,293,0.0,1.1,77,0.00,,,0.00,WUHU216HW,2013-01-02 18:38:00,
2013-01-02 13:43:00,44.6,36.8,29.93,North,0,0.7,1.3,74,0.00,,,0.00,WUHU216HW,2013-01-02 18:43:00,
2013-01-02 13:48:00,44.5,37.7,29.94,South,180,0.0,1.3,77,0.00,,,0.00,WUHU216HW,2013-01-02 18:48:00,
2013-01-02 13:53:00,44.3,37.5,29.92,WSW,248,0.7,1.6,77,0.00,,,0.00,WUHU216HW,2013-01-02 18:53:00,
2013-01-02 13:59:00,44.5,38.0,29.93,West,270,1.1,1.6,78,0.00,,,0.00,WUHU216HW,2013-01-02 18:59:00,
2013-01-02 14:04:00,44.3,37.8,29.92,WSW,248,0.4,1.1,78,0.00,,,0.00,WUHU216HW,2013-01-02 19:04:00,
2013-01-02 14:09:00,44.3,37.8,29.93,North,0,0.9,1.1,78,0.00,,,0.00,WUHU216HW,2013-01-02 19:09:00,
2013-01-02 14:14:00,44.3,38.2,29.92,West,270,1.3,1.3,79,0.00,,,0.00,WUHU216HW,2013-01-02 19:14:00,
2013-01-02 14:19:00,44.3,38.2,29.92,WSW,248,0.4,1.3,79,0.00,,,0.00,WUHU216HW,2013-01-02 19:19:00,
2013-01-02 14:24:00,44.5,38.3,29.93,SW,225,1.1,1.3,79,0.00,,,0.00,WUHU216HW,2013-01-02 19:24:00,
2013-01-02 14:29:00,44.3,38.2,29.92,WSW,248,0.0,1.1,79,0.00,,,0.00,WUHU216HW,2013-01-02 19:29:00,
2013-01-02 14:34:00,44.3,38.2,29.93,West,270,0.2,1.1,79,0.00,,,0.00,WUHU216HW,2013-01-02 19:34:00,
2013-01-02 14:39:00,44.3,37.8,29.93,West,270,0.4,1.8,78,0.00,,,0.00,WUHU216HW,2013-01-02 19:39:00,
2013-01-02 14:44:00,44.1,37.7,29.93,ESE,113,0.7,1.8,78,0.00,,,0.00,WUHU216HW,2013-01-02 19:44:00,
2013-01-02 14:49:00,44.1,38.0,29.93,SE,135,0.9,1.1,79,0.00,,,0.00,WUHU216HW,2013-01-02 19:49:00,
2013-01-02 14:54:00,43.9,37.5,29.92,WSW,248,0.0,1.1,78,0.00,,,0.00,WUHU216HW,2013-01-02 19:54:00,
2013-01-02 14:59:00,43.7,37.6,29.92,West,270,0.7,1.1,79,0.00,,,0.00,WUHU216HW,2013-01-02 19:59:00,
2013-01-02 15:04:00,43.7,37.6,29.92,SSE,158,0.9,1.3,79,0.00,,,0.00,WUHU216HW,2013-01-02 20:04:00,
2013-01-02 15:09:00,43.7,37.4,29.92,NW,315,0.4,1.3,78,0.00,,,0.00,WUHU216HW,2013-01-02 20:09:00,
2013-01-02 15:14:00,43.6,37.2,29.93,ESE,113,0.4,1.1,78,0.00,,,0.00,WUHU216HW,2013-01-02 20:14:00,
2013-01-02 15:19:00,43.6,37.2,29.94,SW,225,0.2,0.9,78,0.00,,,0.00,WUHU216HW,2013-01-02 20:19:00,
2013-01-02 15:24:00,43.6,37.4,29.94,SW,225,0.4,0.9,79,0.00,,,0.00,WUHU216HW,2013-01-02 20:24:00,
2013-01-02 15:29:00,43.6,37.4,29.93,NNE,23,0.0,0.4,79,0.00,,,0.00,WUHU216HW,2013-01-02 20:29:00,
2013-01-02 15:34:00,43.6,37.4,29.94,SSW,203,0.2,1.6,79,0.00,,,0.00,WUHU216HW,2013-01-02 20:34:00,
2013-01-02 15:39:00,43.6,37.4,29.94,West,270,0.0,1.6,79,0.00,,,0.00,WUHU216HW,2013-01-02 20:39:00,
2013-01-02 15:44:00,43.4,37.6,29.94,WSW,248,0.0,1.3,80,0.00,,,0.00,WUHU216HW,2013-01-02 20:44:00,
2013-01-02 15:49:00,43.4,37.6,29.94,WSW,248,0.0,0.4,80,0.00,,,0.00,WUHU216HW,2013-01-02 20:49:00,
2013-01-02 15:54:00,43.4,37.6,29.89,WSW,248,0.0,0.4,80,0.00,,,0.00,WUHU216HW,2013-01-02 20:54:00,
2013-01-02 15:59:00,43.2,37.4,29.90,SSE,158,0.0,0.9,80,0.00,,,0.00,WUHU216HW,2013-01-02 20:59:00,
2013-01-02 16:04:00,43.2,37.4,29.89,SSE,158,0.0,0.9,80,0.00,,,0.00,WUHU216HW,2013-01-02 21:04:00,
2013-01-02 16:09:00,43.2,37.1,29.90,WSW,248,0.7,0.7,79,0.00,,,0.00,WUHU216HW,2013-01-02 21:09:00,
2013-01-02 16:14:00,43.0,37.3,29.90,SSW,203,0.2,0.7,80,0.00,,,0.00,WUHU216HW,2013-01-02 21:14:00,
2013-01-02 16:19:00,42.8,37.1,29.90,SE,135,0.7,0.9,80,0.00,,,0.00,WUHU216HW,2013-01-02 21:19:00,
2013-01-02 16:24:00,42.8,37.4,29.91,SSW,203,0.0,0.9,81,0.00,,,0.00,WUHU216HW,2013-01-02 21:24:00,
2013-01-02 16:29:00,42.8,37.4,29.91,SSW,203,0.0,0.7,81,0.00,,,0.00,WUHU216HW,2013-01-02 21:29:00,
2013-01-02 16:34:00,42.8,37.4,29.91,West,270,0.4,0.9,81,0.00,,,0.00,WUHU216HW,2013-01-02 21:34:00,
2013-01-02 16:39:00,42.8,37.4,29.90,West,270,0.0,0.9,81,0.00,,,0.00,WUHU216HW,2013-01-02 21:39:00,
2013-01-02 16:44:00,42.7,37.2,29.94,SE,135,0.0,1.1,81,0.00,,,0.00,WUHU216HW,2013-01-02 21:44:00,
2013-01-02 16:49:00,42.7,37.5,29.93,SE,135,0.0,1.1,82,0.00,,,0.00,WUHU216HW,2013-01-02 21:49:00,
2013-01-02 16:54:00,42.5,37.4,29.94,SE,135,0.0,0.0,82,0.00,,,0.00,WUHU216HW,2013-01-02 21:54:00,
2013-01-02 16:59:00,42.5,37.6,29.96,SE,135,0.0,0.0,83,0.00,,,0.00,WUHU216HW,2013-01-02 21:59:00,
2013-01-02 17:04:00,42.3,37.4,29.96,SE,135,0.0,0.0,83,0.00,,,0.00,WUHU216HW,2013-01-02 22:04:00,
2013-01-02 17:09:00,42.1,37.6,29.95,SW,225,0.0,1.1,84,0.00,,,0.00,WUHU216HW,2013-01-02 22:09:00,
2013-01-02 17:14:00,42.1,37.6,29.96,SSW,203,0.0,1.1,84,0.00,,,0.00,WUHU216HW,2013-01-02 22:14:00,
2013-01-02 17:19:00,42.1,37.3,29.96,SSW,203,0.0,0.2,83,0.00,,,0.00,WUHU216HW,2013-01-02 22:19:00,
2013-01-02 17:24:00,41.9,37.1,29.95,SSW,203,0.0,0.0,83,0.00,,,0.00,WUHU216HW,2013-01-02 22:24:00,
2013-01-02 17:29:00,41.8,37.3,29.94,SSW,203,0.4,0.4,84,0.00,,,0.00,WUHU216HW,2013-01-02 22:29:00,
2013-01-02 17:34:00,41.6,36.7,29.96,SSW,203,0.0,0.4,83,0.00,,,0.00,WUHU216HW,2013-01-02 22:34:00,
2013-01-02 17:39:00,41.6,37.1,29.96,SSW,203,0.0,0.4,84,0.00,,,0.00,WUHU216HW,2013-01-02 22:39:00,
2013-01-02 17:44:00,41.4,36.9,29.97,SSW,203,0.0,0.0,84,0.00,,,0.00,WUHU216HW,2013-01-02 22:44:00,
2013-01-02 17:49:00,41.4,36.9,29.97,SSW,203,0.0,0.0,84,0.00,,,0.00,WUHU216HW,2013-01-02 22:49:00,
2013-01-02 17:54:00,41.2,37.0,29.98,SSE,158,0.4,1.1,85,0.00,,,0.00,WUHU216HW,2013-01-02 22:54:00,
2013-01-02 17:59:00,41.2,37.0,29.98,SE,135,0.4,1.1,85,0.00,,,0.00,WUHU216HW,2013-01-02 22:59:00,
2013-01-02 18:04:00,41.2,36.7,29.97,SE,135,0.0,1.1,84,0.00,,,0.00,WUHU216HW,2013-01-02 23:04:00,
2013-01-02 18:09:00,41.0,36.6,29.96,SE,135,0.4,1.1,84,0.00,,,0.00,WUHU216HW,2013-01-02 23:09:00,
2013-01-02 18:14:00,41.2,36.7,29.98,SE,135,0.0,0.7,84,0.00,,,0.00,WUHU216HW,2013-01-02 23:14:00,
2013-01-02 18:19:00,41.0,36.6,29.96,SE,135,0.0,1.1,84,0.00,,,0.00,WUHU216HW,2013-01-02 23:19:00,
2013-01-02 18:24:00,41.0,36.6,29.95,SE,135,0.0,1.1,84,0.00,,,0.00,WUHU216HW,2013-01-02 23:24:00,
2013-01-02 18:29:00,41.0,36.8,29.97,SE,135,0.0,1.1,85,0.00,,,0.00,WUHU216HW,2013-01-02 23:29:00,
2013-01-02 18:34:00,40.9,36.6,29.98,SE,135,0.0,0.0,85,0.00,,,0.00,WUHU216HW,2013-01-02 23:34:00,
2013-01-02 18:39:00,40.9,36.6,29.98,SE,135,0.0,0.7,85,0.00,,,0.00,WUHU216HW,2013-01-02 23:39:00,
2013-01-02 18:44:00,40.9,36.6,29.98,SE,135,0.0,0.7,85,0.00,,,0.00,WUHU216HW,2013-01-02 23:44:00,
2013-01-02 18:49:00,40.9,36.6,29.98,SE,135,0.7,0.7,85,0.00,,,0.00,WUHU216HW,2013-01-02 23:49:00,
2013-01-02 18:54:00,40.7,36.5,29.98,SE,135,0.2,0.9,85,0.00,,,0.00,WUHU216HW,2013-01-02 23:54:00,
2013-01-02 18:59:00,40.7,36.5,29.97,SE,135,0.0,0.9,85,0.00,,,0.00,WUHU216HW,2013-01-02 23:59:00,
2013-01-02 19:04:00,40.7,36.8,29.97,SE,135,0.0,0.2,86,0.00,,,0.00,WUHU216HW,2013-01-03 00:04:00,
2013-01-02 19:09:00,40.7,36.8,29.98,SE,135,1.1,1.1,86,0.00,,,0.00,WUHU216HW,2013-01-03 00:09:00,
2013-01-02 19:14:00,40.7,36.8,29.98,SE,135,0.0,1.1,86,0.00,,,0.00,WUHU216HW,2013-01-03 00:14:00,
2013-01-02 19:19:00,40.7,36.8,29.99,SE,135,0.0,1.1,86,0.00,,,0.00,WUHU216HW,2013-01-03 00:19:00,
2013-01-02 19:24:00,40.5,36.6,29.99,SE,135,0.7,0.7,86,0.00,,,0.00,WUHU216HW,2013-01-03 00:24:00,
2013-01-02 19:29:00,40.5,36.9,30.01,SSE,158,0.4,1.1,87,0.00,,,0.00,WUHU216HW,2013-01-03 00:29:00,
2013-01-02 19:34:00,40.5,36.9,29.99,SE,135,0.2,1.1,87,0.00,,,0.00,WUHU216HW,2013-01-03 00:34:00,
2013-01-02 19:39:00,40.5,36.9,29.94,SE,135,0.4,1.1,87,0.00,,,0.00,WUHU216HW,2013-01-03 00:39:00,
2013-01-02 19:44:00,40.5,37.2,29.95,SE,135,0.0,1.1,88,0.00,,,0.00,WUHU216HW,2013-01-03 00:44:00,
2013-01-02 19:49:00,40.5,37.2,29.94,SE,135,0.2,1.1,88,0.00,,,0.00,WUHU216HW,2013-01-03 00:49:00,
2013-01-02 19:54:00,40.3,36.7,29.96,SE,135,0.4,1.1,87,0.00,,,0.00,WUHU216HW,2013-01-03 00:54:00,
2013-01-02 19:59:00,40.5,36.9,29.96,SE,135,1.1,1.3,87,0.00,,,0.00,WUHU216HW,2013-01-03 00:59:00,
2013-01-02 20:04:00,40.5,36.9,29.95,SE,135,0.7,1.3,87,0.00,,,0.00,WUHU216HW,2013-01-03 01:04:00,
2013-01-02 20:09:00,40.5,36.9,29.95,SE,135,0.0,1.1,87,0.00,,,0.00,WUHU216HW,2013-01-03 01:09:00,
2013-01-02 20:14:00,40.5,37.2,29.95,SE,135,1.8,1.8,88,0.00,,,0.00,WUHU216HW,2013-01-03 01:14:00,
2013-01-02 20:19:00,40.3,37.0,29.94,SE,135,0.0,1.8,88,0.00,,,0.00,WUHU216HW,2013-01-03 01:19:00,
2013-01-02 20:24:00,40.3,37.0,29.95,SE,135,0.0,1.8,88,0.00,,,0.00,WUHU216HW,2013-01-03 01:24:00,
2013-01-02 20:29:00,40.3,37.0,29.96,SE,135,0.0,0.9,88,0.00,,,0.00,WUHU216HW,2013-01-03 01:29:00,
2013-01-02 20:34:00,40.3,36.7,30.00,SE,135,0.2,0.9,87,0.00,,,0.00,WUHU216HW,2013-01-03 01:34:00,
2013-01-02 20:39:00,40.3,36.7,30.00,SE,135,0.0,0.4,87,0.00,,,0.00,WUHU216HW,2013-01-03 01:39:00,
2013-01-02 20:44:00,40.3,37.0,30.01,SE,135,1.1,1.1,88,0.00,,,0.00,WUHU216HW,2013-01-03 01:44:00,
2013-01-02 20:49:00,40.3,37.0,30.00,SE,135,0.0,1.1,88,0.00,,,0.00,WUHU216HW,2013-01-03 01:49:00,
2013-01-02 20:54:00,40.3,37.0,30.00,SSE,158,0.2,1.1,88,0.00,,,0.00,WUHU216HW,2013-01-03 01:54:00,
2013-01-02 20:59:00,40.1,36.8,30.01,SE,135,0.4,1.3,88,0.00,,,0.00,WUHU216HW,2013-01-03 01:59:00,
2013-01-02 21:04:00,40.1,36.8,30.01,SE,135,1.1,1.3,88,0.00,,,0.00,WUHU216HW,2013-01-03 02:04:00,
2013-01-02 21:09:00,40.3,36.7,30.01,SE,135,0.0,1.3,87,0.00,,,0.00,WUHU216HW,2013-01-03 02:09:00,
2013-01-02 21:14:00,40.3,36.7,30.00,SE,135,0.0,1.3,87,0.00,,,0.00,WUHU216HW,2013-01-03 02:14:00,
2013-01-02 21:19:00,40.3,36.7,29.99,SE,135,0.0,0.4,87,0.00,,,0.00,WUHU216HW,2013-01-03 02:19:00,
2013-01-02 21:24:00,40.1,36.5,30.00,SE,135,0.0,0.0,87,0.00,,,0.00,WUHU216HW,2013-01-03 02:24:00,
2013-01-02 21:29:00,40.3,36.7,30.00,SE,135,0.0,0.0,87,0.00,,,0.00,WUHU216HW,2013-01-03 02:29:00,
2013-01-02 21:34:00,40.1,36.5,30.01,SE,135,0.0,0.0,87,0.00,,,0.00,WUHU216HW,2013-01-03 02:34:00,
2013-01-02 21:39:00,40.1,36.5,30.01,SE,135,0.0,0.0,87,0.00,,,0.00,WUHU216HW,2013-01-03 02:39:00,
2013-01-02 21:44:00,40.1,36.5,30.01,SE,135,0.0,0.0,87,0.00,,,0.00,WUHU216HW,2013-01-03 02:44:00,
2013-01-02 21:49:00,40.1,36.5,30.01,SE,135,0.0,0.0,87,0.00,,,0.00,WUHU216HW,2013-01-03 02:49:00,
2013-01-02 21:54:00,40.1,36.5,30.02,SE,135,0.0,0.0,87,0.00,,,0.00,WUHU216HW,2013-01-03 02:54:00,
2013-01-02 21:59:00,40.0,36.4,30.02,SE,135,0.0,0.0,87,0.00,,,0.00,WUHU216HW,2013-01-03 02:59:00,
2013-01-02 22:04:00,40.1,36.5,30.01,SE,135,0.0,0.0,87,0.00,,,0.00,WUHU216HW,2013-01-03 03:04:00,
2013-01-02 22:09:00,40.1,36.5,30.02,SE,135,0.4,0.9,87,0.00,,,0.00,WUHU216HW,2013-01-03 03:09:00,
2013-01-02 22:14:00,40.0,36.4,30.02,SE,135,0.0,0.9,87,0.00,,,0.00,WUHU216HW,2013-01-03 03:14:00,
2013-01-02 22:19:00,40.0,36.4,30.03,SE,135,0.0,0.4,87,0.00,,,0.00,WUHU216HW,2013-01-03 03:19:00,
2013-01-02 22:24:00,40.0,36.4,30.02,SE,135,1.1,1.1,87,0.00,,,0.00,WUHU216HW,2013-01-03 03:24:00,
2013-01-02 22:29:00,40.0,36.4,30.00,SSE,158,0.0,1.1,87,0.00,,,0.00,WUHU216HW,2013-01-03 03:29:00,
2013-01-02 22:36:00,39.8,36.2,30.00,SE,135,0.4,1.1,87,0.00,,,0.00,WUHU216HW,2013-01-03 03:36:00,
2013-01-02 22:46:00,39.8,36.2,30.00,SE,135,0.0,0.0,87,0.00,,,0.00,WUHU216HW,2013-01-03 03:46:00,
2013-01-02 22:51:00,39.6,36.0,30.01,SE,135,0.0,0.0,87,0.00,,,0.00,WUHU216HW,2013-01-03 03:51:00,
2013-01-02 22:56:00,39.6,36.0,30.00,WSW,248,0.0,0.4,87,0.00,,,0.00,WUHU216HW,2013-01-03 03:56:00,
2013-01-02 23:01:00,39.6,36.0,30.00,WSW,248,0.0,0.4,87,0.00,,,0.00,WUHU216HW,2013-01-03 04:01:00,
2013-01-02 23:06:00,39.6,36.0,29.99,SE,135,0.0,1.1,87,0.00,,,0.00,WUHU216HW,2013-01-03 04:06:00,
2013-01-02 23:11:00,39.6,36.0,30.00,SE,135,0.0,1.1,87,0.00,,,0.00,WUHU216HW,2013-01-03 04:11:00,
2013-01-02 23:16:00,39.4,35.8,30.00,SE,135,0.0,0.4,87,0.00,,,0.00,WUHU216HW,2013-01-03 04:16:00,
2013-01-02 23:21:00,39.4,35.8,30.00,SE,135,0.0,0.9,87,0.00,,,0.00,WUHU216HW,2013-01-03 04:21:00,
2013-01-02 23:26:00,39.4,35.8,30.00,SE,135,0.0,0.9,87,0.00,,,0.00,WUHU216HW,2013-01-03 04:26:00,
2013-01-02 23:31:00,39.2,35.6,29.99,SE,135,0.4,0.7,87,0.00,,,0.00,WUHU216HW,2013-01-03 04:31:00,
2013-01-02 23:36:00,39.2,35.6,29.99,SE,135,0.2,0.9,87,0.00,,,0.00,WUHU216HW,2013-01-03 04:36:00,
2013-01-02 23:41:00,39.2,35.6,29.99,SE,135,0.0,0.9,87,0.00,,,0.00,WUHU216HW,2013-01-03 04:41:00,
2013-01-02 23:46:00,39.2,35.6,30.00,SE,135,0.0,0.0,87,0.00,,,0.00,WUHU216HW,2013-01-03 04:46:00,
2013-01-02 23:51:00,39.2,35.6,29.98,SE,135,0.0,0.0,87,0.00,,,0.00,WUHU216HW,2013-01-03 04:51:00,
2013-01-02 23:56:00,39.1,35.5,29.99,SE,135,0.0,0.0,87,0.00,,,0.00,WUHU216HW,2013-01-03 04:56:00,